Kuchera_Ratio
0.0 0.0 0.0 0.0 0.0 0.0 0.0 0.0 0.0 0.0 0.0 0.0 0.0 0.0 0.0 0.0 0.0 0.0 0.0 0.0 0.0 0.0 0.0 0.0 0.0 0.0 0.0 0.0 0.0 0.0 0.0 0.0 0.0 0.0 0.0 0.0 0.0 0.0 0.0 0.0 0.0 0.0 0.0
0.0 0.0 0.0 0.0 0.0 0.0 0.0 0.0 0.0 0.0 0.0 0.0 0.0 0.0 0.0 0.0 0.0 0.0 0.0 0.0 0.0 0.0 0.0 0.0 0.0 0.0 0.0 0.0 0.0 0.0 0.0 0.0 0.0 0.0 0.0 0.0 0.0 0.0 0.0 0.0 0.0 0.0 0.0
0.0 0.0 0.0 0.0 0.0 0.0 0.0 0.0 0.0 0.0 0.0 0.0 0.0 0.0 0.0 0.0 0.0 0.0 0.0 0.0 0.0 0.0 0.0 0.0 0.0 0.0 0.0 0.0 0.0 0.0 0.0 0.0 0.0 0.0 0.0 0.0 0.0 0.0 0.0 0.0 0.0 0.0 0.0
0.0 0.0 0.0 0.0 0.0 0.0 0.0 0.0 0.0 0.0 0.0 0.0 0.0 0.0 0.0 0.0 0.0 0.0 0.0 0.0 0.0 0.0 0.0 0.0 0.0 0.0 0.0 0.0 0.0 0.0 0.0 0.0 0.0 0.0 0.0 0.0 0.0 0.0 0.0 0.0 0.0 0.0 0.0
0.0 0.0 0.0 0.0 0.0 0.0 0.0 0.0 0.0 0.0 0.0 0.0 0.0 0.0 0.0 0.0 0.0 0.0 0.0 0.0 0.0 0.0 0.0 0.0 0.0 0.0 0.0 0.0 0.0 0.0 0.0 0.0 0.0 0.0 0.0 0.0 0.0 0.0 0.0 0.0 0.0 0.0 0.0
0.0 0.0 0.0 0.0 0.0 0.0 0.0 0.0 0.0 0.0 0.0 0.0 0.0 0.0 0.0 0.0 0.0 0.0 0.0 0.0 0.0 0.0 0.0 0.0 0.0 0.0 0.0 0.0 0.0 0.0 0.0 0.0 0.0 0.0 0.0 0.0 0.0 0.0 0.0 0.0 0.0 0.0 0.0
0.0 0.0 0.0 0.0 0.0 0.0 0.0 0.0 0.0 0.0 0.0 0.0 0.0 0.0 0.0 0.7 1.1 1.0 0.7 0.3 0.0 0.0 0.0 0.0 0.0 0.0 0.0 0.0 0.0 0.0 0.0 0.0 0.0 0.0 0.0 0.0 0.0 0.0 0.0 0.0 0.0 0.0 0.0
0.0 0.0 0.0 0.0 0.0 0.0 0.0 0.0 0.0 0.0 0.0 0.0 0.0 0.0 1.6 3.8 3.2 3.5 2.8 2.5 2.4 1.8 1.4 0.9 0.0 0.0 0.0 0.0 0.0 0.0 0.0 0.0 0.0 0.0 0.0 0.0 0.0 0.0 0.0 0.0 0.0 0.0 0.0
0.0 0.0 0.0 0.0 0.0 0.0 0.0 0.0 0.0 0.0 0.0 0.0 0.0 0.0 2.7 3.2 3.5 4.3 4.5 4.3 4.1 3.7 3.4 2.2 2.2 1.6 0.6 0.0 0.0 0.0 0.0 0.0 0.0 0.0 0.0 0.0 0.0 0.0 0.0 0.0 0.0 0.0 0.0
0.2 0.0 0.0 0.0 0.0 0.0 0.0 0.0 0.0 0.0 0.0 0.0 0.0 0.0 0.0 0.0 3.7 4.7 5.5 5.8 5.9 5.0 5.3 4.6 4.2 3.3 2.2 1.1 0.0 0.0 0.0 0.0 0.0 0.0 0.0 0.0 0.0 0.0 0.0 0.0 0.0 0.0 0.0
2.1 1.1 0.0 0.0 0.0 0.0 0.0 0.0 0.0 0.0 0.0 0.0 0.0 1.0 1.9 2.1 2.5 3.6 4.9 6.5 7.6 7.4 6.5 6.0 5.5 4.7 3.5 1.9 0.2 0.0 0.0 0.0 0.0 0.0 0.0 0.0 0.0 0.0 0.0 0.0 0.0 0.0 0.0
4.8 3.8 2.7 1.8 1.0 0.5 0.3 0.4 0.4 0.4 0.5 0.7 1.6 2.2 2.4 3.1 4.2 4.2 6.2 8.4 8.8 8.8 8.4 7.0 6.5 6.0 5.0 4.5 0.0 0.0 0.0 0.0 0.0 0.0 0.0 0.0 0.0 0.0 0.0 0.0 0.0 0.0 0.0
6.7 5.9 5.5 4.9 4.1 3.7 3.6 3.6 3.6 3.7 4.0 3.7 4.5 4.3 4.9 4.8 5.4 6.3 7.2 8.3 8.9 8.5 9.1 8.8 7.8 7.1 3.2 6.4 5.3 0.0 0.0 0.0 0.0 0.0 0.0 0.0 0.0 0.0 0.0 0.0 0.0 0.0 0.0
7.5 7.8 7.3 6.6 6.0 5.9 5.6 5.9 5.9 5.8 6.3 6.3 6.5 7.1 7.3 7.9 8.5 8.6 9.5 10.2 11.0 11.0 10.3 11.3 9.5 9.2 8.7 7.3 3.7 0.0 7.3 0.0 0.0 0.0 0.0 0.0 0.0 0.0 0.0 0.0 0.0 0.0 0.0
7.1 8.4 8.4 9.0 8.9 8.6 8.2 8.1 7.8 7.5 8.3 8.7 8.9 9.6 10.3 11.2 11.1 10.7 11.2 11.8 12.7 13.3 12.7 12.1 12.3 10.7 9.9 8.5 7.6 7.7 8.5 2.2 0.0 0.0 0.0 0.0 0.0 0.0 0.0 0.0 0.0 0.0 0.0
8.0 9.5 9.8 9.7 9.9 9.9 10.2 10.4 10.3 10.7 10.8 11.2 10.6 11.9 12.1 12.2 12.5 12.3 12.1 12.9 13.2 14.0 14.8 13.6 13.4 12.7 11.1 7.5 8.0 9.1 10.2 2.8 2.1 0.0 0.0 0.0 0.0 0.0 0.0 0.0 0.0 0.0 0.0
10.1 10.3 10.4 11.0 11.3 11.7 11.5 12.2 12.4 12.5 12.5 12.5 12.4 12.7 13.2 12.9 13.4 13.8 13.2 13.5 13.9 14.3 15.4 14.3 13.2 12.8 13.3 13.1 12.6 12.3 12.0 11.7 11.0 2.1 0.0 0.0 0.0 0.0 0.0 0.0 0.0 0.0 0.0
10.7 11.4 11.6 11.9 12.1 12.2 12.5 12.8 12.9 12.6 13.3 13.7 13.4 13.3 13.4 10.6 13.9 14.1 14.5 14.7 14.8 15.4 15.8 16.2 15.7 14.9 14.8 13.2 13.4 13.9 10.9 6.7 11.0 4.1 0.7 0.0 0.0 0.0 0.0 0.0 0.0 0.0 0.0
12.5 11.8 12.1 12.5 12.7 12.6 13.0 13.2 13.3 13.5 13.6 13.7 13.7 14.1 14.1 14.4 14.8 14.3 15.1 15.5 15.3 13.3 15.6 16.3 16.4 15.4 15.2 14.1 13.4 13.3 13.2 12.7 9.4 4.5 1.8 0.4 0.0 0.0 0.0 0.0 0.0 0.0 0.0
13.1 13.0 12.9 12.9 12.8 12.9 12.4 12.7 12.3 13.6 13.8 13.4 13.4 13.6 14.0 14.4 14.7 15.0 14.7 15.4 14.6 16.1 16.4 16.5 16.3 15.9 15.5 14.2 14.8 14.9 14.7 12.7 12.5 7.5 5.3 4.0 2.2 0.9 0.0 0.0 0.0 0.0 0.0
13.5 13.4 13.2 13.2 13.3 13.0 12.4 13.5 12.7 13.2 13.7 14.2 13.7 13.1 13.0 12.9 11.5 12.3 14.0 16.6 16.7 17.2 16.4 16.5 16.6 16.2 16.1 15.9 15.9 14.4 14.3 13.8 13.4 12.7 12.2 11.4 11.3 11.0 11.1 5.6 3.7 1.8 1.6
15.4 15.4 15.4 14.4 14.0 12.7 10.1 8.0 8.4 13.8 12.9 13.4 14.6 14.4 13.4 11.1 10.8 7.1 6.2 5.9 13.1 16.1 17.4 17.1 16.8 17.2 16.2 15.7 14.5 14.8 14.7 15.5 16.7 12.1 14.0 13.3 12.1 12.2 10.4 9.0 4.0 2.3 1.0
16.0 16.2 16.0 15.8 16.0 15.6 13.1 11.6 10.2 11.5 12.1 13.3 13.8 13.6 13.3 12.1 11.6 12.8 11.2 7.6 6.6 4.9 7.1 16.2 17.4 17.0 16.5 15.1 14.5 15.0 15.1 15.5 15.9 13.5 13.3 14.7 11.4 12.6 10.1 7.7 3.6 2.5 1.4
17.2 17.1 16.9 16.6 16.7 15.9 13.2 12.4 12.0 13.3 13.8 13.3 13.0 13.6 14.4 14.2 13.2 13.1 13.7 14.0 13.9 13.6 13.0 12.2 13.3 14.3 14.2 14.0 14.0 13.7 14.3 14.3 13.5 12.7 12.4 16.5 13.2 13.6 11.7 10.7 5.0 3.3 2.2
18.0 17.9 17.3 17.6 17.8 17.3 14.3 13.6 13.4 14.7 14.4 14.0 12.9 13.2 13.6 14.0 12.1 9.9 13.0 14.2 14.5 14.3 10.0 7.5 7.2 6.9 6.4 6.0 9.0 14.8 17.5 17.1 17.8 16.1 12.8 14.8 14.4 14.2 12.9 12.4 10.5 4.9 3.2
18.3 17.7 17.7 17.7 17.1 17.4 15.0 13.9 13.8 15.1 16.3 15.1 14.2 13.9 11.6 12.4 10.2 9.3 12.9 14.3 15.7 14.6 14.4 13.9 13.4 12.0 9.3 11.0 6.9 10.1 13.2 16.7 16.6 17.0 13.2 14.7 14.4 14.1 16.4 12.2 11.1 10.4 10.5